Overview Statistics Trail Chart Weather Telemetry Raw packets
 

This is the latest recevied weather packets stored in our database for station/object M0JUI-1. If no packets are shown the sender has not sent any weather packets the latest 10 day(s).

<< 31 32 33 34 35 36 37 >>
Time Temp. Humidity Pressure Rain* Wind** Luminosity Snow
1788421689 16.67° C 6% 1015.1 hPa 0 mm - 78 W/m² -
1788421389 16.67° C 6% 1015 hPa 0 mm - 73 W/m² -
1788421089 16.67° C 6% 1015.2 hPa 0 mm - 80 W/m² -
1788420789 16.67° C 6% 1014.9 hPa 0 mm - 34 W/m² -
1788420489 16.67° C 6% 1015 hPa 0 mm - 32 W/m² -
1788420177 16.67° C 6% 1014.9 hPa 0 mm - 40 W/m² -
1788419877 16.67° C 6% 1015.1 hPa 0 mm - 44 W/m² -
1788419577 16.67° C 6% 1014.9 hPa 0 mm - 69 W/m² -
1788419277 16.67° C 6% 1014.6 hPa 0 mm - 41 W/m² -
1788418977 16.67° C 6% 1014.7 hPa 0 mm - 36 W/m² -
1788418677 16.67° C 7% 1014.7 hPa 0 mm - 63 W/m² -
1788418377 16.67° C 6% 1014.3 hPa 0 mm - 48 W/m² -
1788418077 16.67° C 6% 1014.3 hPa 0 mm - 47 W/m² -
1788417777 16.67° C 6% 1014.2 hPa 0 mm - 45 W/m² -
1788417477 16.67° C 5% 1014.2 hPa 0 mm - 28 W/m² -
1788417177 16.67° C 5% 1014.3 hPa 0 mm - 23 W/m² -
1788416865 16.67° C 4% 1013.9 hPa 0 mm - 16 W/m² -
1788416566 16.67° C 4% 1013.9 hPa 0 mm - 17 W/m² -
1788416285 16.67° C 3% 1014.1 hPa 0 mm - 36 W/m² -
1788415953 16.11° C 3% 1014.1 hPa 0 mm - 30 W/m² -
1788415653 16.11° C 3% 1013.9 hPa 0 mm - 26 W/m² -
1788415353 16.11° C 3% 1013.9 hPa 0 mm - 18 W/m² -
1788415041 16.11° C 3% 1013.8 hPa 0 mm - 14 W/m² -
1788414742 16.11° C 4% 1014 hPa 0 mm - 7 W/m² -
1788414441 16.11° C 4% 1014.1 hPa 0 mm - 6 W/m² -

* Rain latest hour (hover to see other rain measurements)
** Current wind speed in m/s (hover to see current wind gust speed)